星链-5128 (STARLINK-5128 )

导读 | 豆包AI

STARLINK-5128是美国太空探索技术公司星链(Starlink)星座中的一颗卫星,于2022年10月05日发射升空,属于星链互联网卫星项目。星链项目旨在通过近地轨道卫星群,为全球范围用户提供高速低延迟的宽带互联网服务,该卫星服役后,进一步扩充了星链星座的在轨卫星规模,提升了星座覆盖密度与服务能力。

基本信息
目录编号:
53998
目录名称:
STARLINK-5128
国际标识:
2022-125AL
轨道中心:
EARTH
卫星名称:
星链-5128
卫星全名:
星链-5128 (STARLINK-5128 )
卫星状态:
在轨 (已飞行1303 天)
发射日期:
2022-10-05 UTC
国别 :
美国 (US)
星等 :
--
轨道信息
数据来源 国际轨道数据
星历时间: 2026-04-30T06:40:01+0800
16小时前
查看轨道信息
半长轴: 6917.882km
偏心率: 0.000136
轨道倾角: 53.218°
近地点辐角 91.683°
升交点赤经 343.789°
平近点角 268.431°
近地点: 538.804km
远地点: 540.686km
周期: 95.438分钟
每日圈数: 15.088398
详细信息
固有亮度:
5
最大亮度:
2.5
卫星平台:
Starlink v1.5
覆盖范围:
全球
运营商:
太空探索技术公司
运营商所在国:
美国
制造商(研发单位):
太空探索技术公司
制造商所在国:
美国
使用方式:
暂无
卫星简介
星链(Starlink)计划是由太空探索技术公司(SpaceX)提出的一个巨型低轨卫星互联网星座项目,计划在2019年至2024年间在太空搭建由约1.2万颗卫星组成的“星链”网络,其中1584颗将部署在地球上空550千米处的近地轨道,并从2020年开始工作。该卫星仍在工作。
2D轨道图
3D轨道图
轨道高度分析图
轨道倾角分析图
轨道综合分析图
查看轨道综合分析图